Flag for U.S.A. Weather past 2 weeks in Bristol, Tennessee, U.S.A.

Now
83 °F

Scattered clouds.


Feels Like: 88 °F
Forecast: 65 / 84 °F
Wind: 7 mph from West

Location: Abingdon-Southwest Abingdon

Current Time: Aug 21, 2014 at 4:55:17 PM

Latest Report: Aug 21, 2014 at 4:35 PM


Visibility: 10 mi

Pressure: 30.16 "Hg

Humidity: 69%

Dew point: 72 °F

Location of BristolLocation

Historic Weather in Bristol — Graph

°F

Bristol temperature yesterday

Maximum temperature yesterday: 82 °F (at 5:55 PM)
Minimum temperature yesterday: 67 °F (at 3:35 AM)
Average temperature yesterday: 73 °F

Past Weeks' High & Low Weather Summary

 TemperatureHumidityPressure
High83 °F (Aug 7, 3:55 PM)100% (Aug 7, 1:15 AM)30.24 "Hg (Aug 7, 1:15 AM)
Low54 °F (Aug 14, 5:55 AM)41% (Aug 7, 4:35 PM)29.88 "Hg (Aug 12, 4:55 PM)
Average71 °F83%30.06 "Hg
* Reported Aug 6 3:15 PM — Aug 21 3:35 PM, Bristol, Weather by CustomWeather, © 2014

Note: Actual official high and low records may vary slightly from our data, if they occured in-between our weather recording intervals... More about our weather records

Advertising

Bristol weather history for previous 24 hours

 ConditionsComfort  
Time TempWeatherWind HumidityBarometerVisibility
3:35 PM
Aug 21
81 °FPartly sunny.8 mph70%30.19 "Hg10 mi
3:15 PM82 °FBroken clouds.9 mph68%30.20 "Hg10 mi
2:55 PM81 °FBroken clouds.8 mph69%30.21 "Hg10 mi
2:35 PM80 °FBroken clouds.5 mph71%30.22 "Hg10 mi
1:55 PM78 °FMostly cloudy.6 mph72%30.23 "Hg10 mi
1:35 PM78 °FOvercast.6 mph73%30.23 "Hg10 mi
1:15 PM76 °FOvercast.5 mph78%30.23 "Hg10 mi
12:55 PM76 °FMore clouds than sun.6 mph75%30.23 "Hg10 mi
12:35 PM75 °FMostly cloudy.7 mph74%30.23 "Hg10 mi
12:15 PM74 °FMostly cloudy.7 mph75%30.24 "Hg10 mi
11:55 AM74 °FCloudy.6 mph79%30.24 "Hg10 mi
11:35 AM73 °FMostly cloudy.8 mph78%30.24 "Hg10 mi
11:15 AM74 °FCloudy.6 mph79%30.23 "Hg10 mi
10:55 AM74 °FPartly sunny.5 mph78%30.23 "Hg10 mi
10:35 AM74 °FSunny.3 mph79%30.22 "Hg10 mi
10:15 AM73 °FScattered clouds.5 mph80%30.22 "Hg10 mi
9:55 AM72 °FSunny.3 mph83%30.23 "Hg10 mi
9:35 AM72 °FSunny.3 mph82%30.23 "Hg10 mi
9:15 AM71 °FScattered clouds.5 mph84%30.22 "Hg10 mi
8:55 AM70 °FScattered clouds.3 mph88%30.22 "Hg10 mi
8:35 AM69 °FFog.No wind94%30.22 "Hg5 mi
7:55 AM67 °FFog.No wind99%30.20 "Hg2 mi
7:35 AM66 °FFog.No wind99%30.20 "Hg2 mi
7:15 AM66 °FFog.No wind99%30.20 "Hg3 mi
6:55 AM66 °FFog.No wind98%30.19 "Hg4 mi
6:35 AM67 °FFog.No wind98%30.19 "Hg5 mi
6:15 AM67 °FPassing clouds.No wind98%30.18 "Hg7 mi
5:55 AM67 °FFog.No wind98%30.18 "Hg5 mi
5:35 AM67 °FLow clouds.3 mph98%30.17 "Hg7 mi
5:15 AM68 °FFog.3 mph98%30.17 "Hg5 mi
4:55 AM68 °FFog.No wind98%30.16 "Hg5 mi
4:35 AM68 °FFog.3 mph98%30.17 "Hg5 mi
4:15 AM68 °FLow clouds.No wind97%30.16 "Hg7 mi
3:55 AM68 °FLow clouds.5 mph97%30.16 "Hg7 mi
3:35 AM68 °FLow clouds.3 mph98%30.17 "Hg7 mi
3:15 AM68 °FFog.3 mph99%30.17 "Hg5 mi
2:55 AM68 °FFog.6 mph98%30.16 "Hg5 mi
2:35 AM68 °FFog.6 mph98%30.17 "Hg5 mi
1:55 AM68 °FLow clouds.5 mph98%30.15 "Hg10 mi
1:35 AM69 °FLow clouds.3 mph98%30.15 "Hg7 mi
12:55 AM69 °FLow clouds.7 mph98%30.15 "Hg7 mi
12:35 AM69 °FLow clouds.6 mph99%30.15 "Hg7 mi
12:15 AM69 °FMostly cloudy.8 mph99%30.15 "Hg7 mi
11:55 PM
Aug 20
69 °FLow clouds.6 mph100%30.14 "Hg7 mi
11:35 PM69 °FFog.12 mph100%30.13 "Hg5 mi
11:15 PM69 °FFog.7 mph99%30.14 "Hg5 mi
10:55 PM70 °FLight rain. Mostly cloudy.8 mph98%30.14 "Hg7 mi
10:35 PM71 °FLight rain. Partly cloudy.12 mph95%30.15 "Hg10 mi
10:15 PM72 °FLight rain. Overcast.7 mph93%30.18 "Hg7 mi
9:55 PM72 °FRain. Mostly cloudy.5 mph90%30.20 "Hg7 mi
9:35 PM72 °FThundershowers. Overcast.5 mph95%30.20 "Hg7 mi
9:15 PM72 °FThundershowers. Mostly cloudy.7 mph88%30.18 "Hg7 mi
8:55 PM73 °FLight rain. Broken clouds.7 mph84%30.16 "Hg10 mi
8:35 PM74 °FLight rain. Scattered clouds.6 mph80%30.13 "Hg10 mi
7:55 PM78 °FScattered clouds.7 mph84%30.09 "Hg10 mi
7:35 PM78 °FScattered clouds.No wind80%30.06 "Hg10 mi
7:15 PM79 °FScattered clouds.3 mph78%30.07 "Hg10 mi
6:55 PM80 °FScattered clouds.6 mph74%30.08 "Hg10 mi
6:35 PM82 °FPartly sunny.9 mph70%30.07 "Hg10 mi
6:15 PM82 °FScattered clouds.5 mph69%30.07 "Hg10 mi
5:55 PM82 °FSunny.9 mph68%30.07 "Hg10 mi
5:35 PM82 °FSunny.8 mph68%30.06 "Hg10 mi
4:55 PM82 °FScattered clouds.8 mph69%30.07 "Hg10 mi
4:35 PM82 °FScattered clouds.7 mph70%30.07 "Hg10 mi
4:15 PM82 °FScattered clouds.8 mph68%30.08 "Hg7 mi
Weather by CustomWeather, © 2014

See weather overviewHow to use our weather pages